Location: Roland
(31.1349°N, 85.4372°W)
Time: 19:53:19
(UTC+00:00)

SR - Pass Details

Date: 21 April 2021
Orbit: 573 x 882 km, 66.7° (Epoch: 13 May)

Event Time Altitude Azimuth Distance (km) Brightness Sun altitude
Rises 14:01:36 0° 262° (W) 3,322 ? 36.3°
Reaches altitude 10° 14:06:17 10° 298° (WNW) 2,464 ? 37.3°
Maximum altitude 14:07:44 11° 313° (NW) 2,417 ? 37.6°
Drops below altitude 10° 14:09:12 10° 328° (NNW) 2,499 ? 37.9°
Sets 14:14:06 0° 3° (N) 3,475 ? 38.9°
